カタログに戻る

COSMOS 2569

GLONASS

運用中ナビゲーションMEO
NORAD 57517·PAYLOAD·🇷🇺 Russia

打ち上げ Aug 7, 2023 から Plesetsk Cosmodrome

Loading…

次のパス (今後24時間)

TLE

最新Source: CelesTrak SupGP

元期: Sep 12, 2026, 23:59 UTC

1 57517C 23114A   26255.99979167  .00000000  00000+0  00000+0 0  2556
2 57517  65.3575  69.6613 0008563 288.3160  67.8481  2.13102816    18

AllMySatでCOSMOS 2569をリアルタイム追跡

Download on the App Store